Location: Anumalkud?ru
(16.4847°N, 80.6636°E)
Time: 22:34:33
(UTC+00:00)

SL-14 R/B - Pass Details

Date: 11 April 2026
Orbit: 496 x 525 km, 82.4° (Epoch: 9 May)

Event Time Altitude Azimuth Distance (km) Brightness Sun altitude
Rises 23:20:30 0° 179° (S) 2,611 6.6 -15.9°
Reaches altitude 10° 23:22:37 10° 176° (S) 1,732 5.8 -15.4°
Maximum altitude 23:26:23 66° 94° (E) 567 3.6 -14.5°
Drops below altitude 10° 23:30:12 10° 12° (NNE) 1,751 6.2 -13.6°
Sets 23:32:21 0° 9° (N) 2,643 7.1 -13.1°
